Location: Helsinki
(60.1699°N, 24.9384°E)
Time: 19:43:46
(UTC+02:00)

Transit 4A - Pass Details

Date: 02 November 2020
Orbit: 862 x 982 km, 66.8° (Epoch: 29 November)

Event Time Altitude Azimuth Distance (km) Brightness Sun altitude
Rises 16:20:47 0° 238° (WSW) 3,639 14.7 -0.9°
Reaches altitude 10° 16:23:19 10° 240° (WSW) 2,708 12.6 -1.2°
Maximum altitude 16:29:42 77° 326° (NNW) 1,011 8.2 -1.9°
Drops below altitude 10° 16:36:10 10° 53° (NE) 2,748 9.7 -2.6°
Enters shadow 16:37:57 - 55° (NE) 3,400 10.2 -2.8°
Sets 16:38:46 0° 55° (NE) 3,696 - -2.9°
